Idabel, OK

2:30 AM CDT on May 01, 2017 (GMT -0500)
Idabel

Weather History for K4O4 - November, 2011

Change the Weather History Date:

Thursday, November 24, 2011

  Actual Average (KPRX) Record (KPRX)
Temperature  
Mean Temperature 48 °F -  
Max Temperature 51 °F 59 °F 78 °F (2010)
Min Temperature 44 °F 40 °F 24 °F (2003)
Degree Days  
Heating Degree Days 16    
Moisture  
Dew Point 45 °F    
Average Humidity 89    
Maximum Humidity 100    
Minimum Humidity 76    
Precipitation  
Precipitation 0.01 in - - ()
Sea Level Pressure  
Sea Level Pressure 30.30 in    
Wind  
Wind Speed 6 mph (ESE)    
Max Wind Speed 9 mph    
Max Gust Speed -    
Visibility 7 miles    
Events      
Averages and records for this station are not official NWS values.
T = Trace of Precipitation, MM = Missing Value Source: NWS Daily Summary

Daily Weather History Graph

Daily Weather History Graph

Search for Another Location

Airport or City:

Trip Planner

Search our weather history database for the weather conditions in past years. The results will help you decide how hot, cold, wet, or windy it might be!

Date:

Astronomy

Nov. 24, 2011 Rise Set
Actual Time 6:59 AM CST 5:11 PM CST
Civil Twilight 6:32 AM CST 5:38 PM CST
Nautical Twilight 6:02 AM CST 6:09 PM CST
Astronomical Twilight 5:32 AM CST 6:39 PM CST
Moon 6:18 AM CST (11/24) 4:45 PM CST (11/24)
Length of Visible Light 11h 05m
Length of Day
10h 12m
Waning Crescent, 0% of the Moon is Illuminated
Nov 24
Waning Crescent
Nov 25
New
Dec 2
First Quarter
Dec 10
Full
Dec 17
Last Quarter

Hourly Weather History & Observations

Time (CST) Temp. Windchill Dew Point Humidity Pressure Visibility Wind Dir Wind Speed Gust Speed Precip Events Conditions
12:55 AM 46.4 °F 45.2 °F 46.4 °F 100% 30.31 in 3.0 mi East 3.5 mph - N/A   Overcast
1:15 AM 46.4 °F 42.9 °F 46.4 °F 100% 30.31 in 4.0 mi East 6.9 mph - N/A   Overcast
1:35 AM 46.4 °F 42.9 °F 46.4 °F 100% 30.31 in 4.0 mi East 6.9 mph - N/A   Overcast
1:55 AM 46.4 °F 42.4 °F 46.4 °F 100% 30.31 in 4.0 mi East 8.1 mph - N/A   Overcast
2:15 AM 46.4 °F 41.9 °F 46.4 °F 100% 30.30 in 3.0 mi East 9.2 mph - N/A   Overcast
2:35 AM 46.4 °F 43.5 °F 46.4 °F 100% 30.30 in 4.0 mi East 5.8 mph - N/A   Overcast
3:35 AM 46.4 °F 42.9 °F 46.4 °F 100% 30.30 in 4.0 mi East 6.9 mph - N/A   Overcast
3:55 AM 46.4 °F 45.2 °F 46.4 °F 100% 30.30 in 4.0 mi East 3.5 mph - N/A   Overcast
4:15 AM 46.4 °F 43.5 °F 44.6 °F 93% 30.30 in 5.0 mi ENE 5.8 mph - N/A   Overcast
4:35 AM 46.4 °F 44.3 °F 44.6 °F 93% 30.30 in 4.0 mi ESE 4.6 mph - N/A   Overcast
4:55 AM 46.4 °F 45.2 °F 44.6 °F 93% 30.31 in 4.0 mi ESE 3.5 mph - N/A   Overcast
5:15 AM 46.4 °F 45.2 °F 44.6 °F 93% 30.31 in 4.0 mi East 3.5 mph - N/A   Overcast
5:55 AM 46.4 °F 42.9 °F 44.6 °F 93% 30.31 in 4.0 mi ESE 6.9 mph - N/A   Overcast
6:15 AM 46.4 °F 44.3 °F 44.6 °F 93% 30.32 in 4.0 mi SE 4.6 mph - N/A   Overcast
6:55 AM 46.4 °F 43.5 °F 44.6 °F 93% 30.32 in 4.0 mi SSE 5.8 mph - N/A   Overcast
7:15 AM 46.4 °F 43.5 °F 44.6 °F 93% 30.33 in 4.0 mi SE 5.8 mph - N/A   Overcast
7:35 AM 46.4 °F 43.5 °F 44.6 °F 93% 30.34 in 5.0 mi SE 5.8 mph - N/A   Overcast
8:15 AM 46.4 °F 42.9 °F 44.6 °F 93% 30.34 in 5.0 mi SE 6.9 mph - N/A   Overcast
8:35 AM 46.4 °F 43.5 °F 44.6 °F 93% 30.34 in 4.0 mi East 5.8 mph - N/A   Overcast
9:35 AM 46.4 °F 43.5 °F 44.6 °F 93% 30.35 in 5.0 mi East 5.8 mph - N/A   Overcast
10:15 AM 46.4 °F 42.9 °F 44.6 °F 93% 30.36 in 5.0 mi ESE 6.9 mph - N/A   Overcast
10:55 AM 48.2 °F - 44.6 °F 87% 30.35 in 10.0 mi ESE 8.1 mph - N/A   Overcast
11:55 AM 50.0 °F - 44.6 °F 82% 30.34 in 10.0 mi SE 6.9 mph - N/A   Overcast
12:15 PM 50.0 °F - 44.6 °F 82% 30.33 in 10.0 mi SE 5.8 mph - N/A   Overcast
1:15 PM 51.8 °F - 44.6 °F 76% 30.31 in 10.0 mi South 8.1 mph - N/A   Overcast
2:15 PM 51.8 °F - 44.6 °F 76% 30.29 in 10.0 mi South 6.9 mph - N/A   Overcast
3:35 PM 51.8 °F - 44.6 °F 76% 30.28 in 10.0 mi SSE 4.6 mph - N/A   Overcast
3:55 PM 51.8 °F - 44.6 °F 76% 30.27 in 10.0 mi SSE 4.6 mph - N/A   Overcast
4:55 PM 51.8 °F - 44.6 °F 76% 30.25 in 10.0 mi SSE 8.1 mph - 0.01 in   Overcast
5:15 PM 50.0 °F - 44.6 °F 82% 30.25 in 10.0 mi ESE 8.1 mph - N/A   Overcast
5:35 PM 50.0 °F - 44.6 °F 82% 30.24 in 10.0 mi SE 6.9 mph - N/A   Overcast
5:55 PM 50.0 °F - 44.6 °F 82% 30.24 in 10.0 mi SE 9.2 mph - N/A   Overcast
6:15 PM 50.0 °F - 44.6 °F 82% 30.25 in 10.0 mi SE 6.9 mph - N/A   Overcast
6:35 PM 50.0 °F - 44.6 °F 82% 30.25 in 10.0 mi SE 8.1 mph - N/A   Overcast
8:55 PM 50.0 °F - 44.6 °F 82% 30.25 in 10.0 mi SE 6.9 mph - N/A   Overcast
9:55 PM 46.4 °F 44.3 °F 42.8 °F 87% 30.25 in 10.0 mi ESE 4.6 mph - N/A   Mostly Cloudy
10:55 PM 46.4 °F 44.3 °F 44.6 °F 93% 30.23 in 7.0 mi ESE 4.6 mph - N/A   Overcast
11:55 PM 44.6 °F 42.2 °F 41.0 °F 87% 30.22 in 5.0 mi ESE 4.6 mph - N/A   Scattered Clouds